Weather reports worldwide

Advertisment
Baruth, Germany (10376): temperature & dewpoint: 17.10.2019 05:00:00 - 23.10.2019 05:00:00 (CEST)Baruth, Germany (10376): temperature 5cm & temperature -5cm: 17.10.2019 05:00:00 - 23.10.2019 05:00:00 (CEST)Baruth, Germany (10376): temperature -20cm & temperature -100cm: 17.10.2019 05:00:00 - 23.10.2019 05:00:00 (CEST)Baruth, Germany (10376): wind speed & gusts: 17.10.2019 05:00:00 - 23.10.2019 05:00:00 (CEST)Baruth, Germany (10376): wind direction: 17.10.2019 05:00:00 - 23.10.2019 05:00:00 (CEST)Baruth, Germany (10376): reduced air pressure: 17.10.2019 05:00:00 - 23.10.2019 05:00:00 (CEST)Baruth, Germany (10376): visibility: 17.10.2019 05:00:00 - 23.10.2019 05:00:00 (CEST)Baruth, Germany (10376): sunshine duration: 17.10.2019 05:00:00 - 23.10.2019 05:00:00 (CEST)Baruth, Germany (10376): precipitation: 17.10.2019 05:00:00 - 23.10.2019 05:00:00 (CEST)
Date & Time tt [°C] td [°C] tt 5cm [°C] tt -5cm [°C] tt -20cm [°C] tt -100cm [°C] ff [km/h] ff [kn] fx [km/h] fx [kn] dd ppp [hPa] vv [km] sd [min] rr [mm]
23.10.2019 05:00:00 4,6 4,3 3,9 8,1 11,3 13,4 0 0 4 2 N 1023,4 0,4 0 0,0
23.10.2019 04:00:00 5,4 5,4 3,4 8,3 11,6 13,4 2 1 6 3 ENE 1023,4 11 0 0,0
23.10.2019 03:00:00 4,7 4,6 3,0 8,6 11,9 13,4 0 0 3 1 N 1024,3 0,3 0 0,0
23.10.2019 02:00:00 5,5 5,5 3,7 9,0 12,2 13,4 1 1 4 2 SSW 1024,4 3,3 0 0,0
23.10.2019 01:00:00 6,5 6,5 4,2 9,5 12,5 13,4 3 2 4 2 WSW 1024,6 6 0 0,0
23.10.2019 00:00:00 6,2 6,2 4,7 9,9 12,9 13,4 3 1 6 3 WNW 1024,7 0,3 0 0,0
22.10.2019 23:00:00 9,0 9,0 5,7 10,5 13,2 13,4 4 2 7 4 W 1024,6 10 0 0,0
22.10.2019 22:00:00 8,4 8,4 5,7 11,1 13,5 13,4 3 2 9 5 SW 1024,7 0,5 0 0,0
22.10.2019 21:00:00 9,7 9,7 6,4 11,9 13,8 13,4 5 3 7 4 WSW 1024,2 3,3 0 0,0
22.10.2019 20:00:00 9,8 8,9 7,9 12,8 14,1 13,4 3 1 18 10 WNW 1024,0 3,6 0 0,0
22.10.2019 19:00:00 12,1 11,2 8,8 13,9 14,4 13,4 0 0 5 3 N 1023,5 19 0 0,0
22.10.2019 18:00:00 14,6 12,1 11,2 15,2 14,4 13,4 3 2 8 5 SSE 1023,1 25 1 0,0
22.10.2019 17:00:00 17,0 12,0 15,6 16,6 14,3 13,4 8 4 11 6 W 1023,1 30 20 0,0
22.10.2019 16:00:00 18,2 12,1 19,1 18,0 13,9 13,4 7 4 16 9 SW 1023,1 25 60 0,0
22.10.2019 15:00:00 18,4 11,3 20,4 17,8 13,4 13,5 10 5 18 10 WSW 1023,7 46 36 0,0
22.10.2019 14:00:00 18,2 10,8 21,8 17,7 12,7 13,5 3 2 9 5 N 1024,0 47 57 0,0
22.10.2019 13:00:00 17,4 10,2 21,0 16,2 12,0 13,5 0 0 8 5 N 1024,2 62 34 0,0
22.10.2019 12:00:00 16,3 10,3 19,9 14,9 11,4 13,5 0 0 8 4 N 1024,6 43 60 0,0
22.10.2019 11:00:00 13,9 11,6 14,8 11,8 11,0 13,5 5 3 14 8 W 1024,5 22 56 0,0
22.10.2019 10:00:00 11,0 9,9 11,1 9,7 10,9 13,5 0 0 6 4 N 1023,9 18 53 0,0
22.10.2019 09:00:00 7,7 7,4 7,5 8,4 11,1 13,5 2 1 10 5 WNW 1023,9 8 26 0,0
22.10.2019 08:00:00 5,9 5,9 3,8 8,1 11,3 13,5 3 2 8 4 WNW 1023,2 15 0 0,0
22.10.2019 07:00:00 5,9 5,8 4,0 8,4 11,6 13,5 4 2 6 3 WNW 1022,9 0,6 0 0,0
22.10.2019 06:00:00 6,7 6,7 4,5 8,8 11,8 13,5 3 2 5 3 NW 1022,5 6 0 0,0
22.10.2019 05:00:00 6,8 6,7 5,1 9,2 12,1 13,5 0 0 4 2 N 1022,6 0,9 0 0,0
22.10.2019 04:00:00 7,0 6,9 5,0 9,5 12,3 13,5 2 1 3 2 WNW 1022,4 13 0 0,0
22.10.2019 03:00:00 8,2 8,2 5,7 9,9 12,6 13,5 1 1 5 3 W 1022,1 16 0 0,0
22.10.2019 02:00:00 8,0 7,9 5,9 10,3 12,8 13,5 2 1 3 2 SE 1021,8 0,5 0 0,0
22.10.2019 01:00:00 9,0 9,0 7,0 10,8 13,1 13,5 3 2 4 2 S 1021,8 7 0 0,0
22.10.2019 00:00:00 8,9 8,5 6,4 11,2 13,3 13,5 2 1 5 3 N 1021,4 0,5 0 0,0
21.10.2019 23:00:00 10,3 10,2 7,7 11,9 13,6 13,5 4 2 7 4 ESE 1021,0 0,6 0 0,0
21.10.2019 22:00:00 11,3 11,3 9,1 12,3 13,8 13,5 3 1 8 4 SE 1021,1 3,6 0 0,0
21.10.2019 21:00:00 12,8 12,7 9,7 12,8 14,0 13,5 6 3 9 5 W 1020,9 11 0 0,0
21.10.2019 20:00:00 13,5 12,9 11,2 13,7 14,2 13,5 4 2 9 5 ESE 1020,2 10 0 0,0
21.10.2019 19:00:00 14,3 13,4 12,2 14,2 14,2 13,5 5 3 8 4 ESE 1019,6 6 0 0,0
21.10.2019 18:00:00 15,4 13,8 14,8 15,1 14,2 13,5 8 4 10 5 W 1019,3 22 0 0,0
21.10.2019 17:00:00 16,6 13,7 15,9 15,9 14,1 13,5 5 3 8 5 S 1019,1 23 9 0,0
21.10.2019 16:00:00 17,0 13,9 17,2 15,7 13,9 13,5 3 1 8 4 SW 1018,9 28 0 0,0
21.10.2019 15:00:00 17,1 13,6 17,1 15,9 13,6 13,5 4 2 6 4 ESE 1018,7 23 0 0,0
21.10.2019 14:00:00 16,9 13,0 18,0 15,7 13,2 13,5 4 2 6 4 WSW 1018,3 22 2 0,0
21.10.2019 13:00:00 16,3 12,7 17,1 15,0 12,9 13,5 5 3 8 5 WSW 1017,9 29 0 0,0
21.10.2019 12:00:00 15,3 12,4 15,9 14,3 12,5 13,5 0 0 9 5 N 1017,5 26 2 0,0
21.10.2019 11:00:00 13,8 12,1 13,8 12,9 12,3 13,5 2 1 6 4 NNW 1017,0 20 0 0,0
21.10.2019 10:00:00 12,4 11,2 12,5 11,9 12,2 13,4 3 2 11 6 SE 1016,6 13 28 0,0
21.10.2019 09:00:00 10,7 10,0 10,4 10,4 12,3 13,4 5 3 8 4 ESE 1015,3 6 38 0,0
21.10.2019 08:00:00 7,5 7,2 6,4 9,9 12,6 13,4 5 3 10 5 ESE 1015,0 0,4 0 0,0
21.10.2019 07:00:00 8,8 8,8 6,6 10,4 12,8 13,4 6 4 10 5 E 1014,2 0,2 0 0,0
21.10.2019 06:00:00 10,7 10,6 9,7 10,9 13,0 13,4 7 4 18 10 E 1013,7 8 0 0,0
21.10.2019 05:00:00 10,8 10,6 9,4 11,4 13,2 13,4 10 5 14 7 ESE 1012,9 7 0 0,0
21.10.2019 04:00:00 11,4 10,7 10,0 12,0 13,3 13,4 6 4 14 7 ESE 1012,8 12 0 0,0
21.10.2019 03:00:00 12,7 11,7 12,0 12,1 13,5 13,4 12 6 16 9 ESE 1012,4 18 0 0,0
21.10.2019 02:00:00 10,8 10,3 10,0 12,0 13,6 13,4 7 4 10 6 SE 1012,4 11 0 0,0
21.10.2019 01:00:00 11,1 10,0 9,0 12,1 13,9 13,4 5 3 9 5 E 1012,2 14 0 0,0
21.10.2019 00:00:00 11,6 10,3 9,6 12,6 14,1 13,4 3 2 14 8 SSE 1012,3 17 0 0,0
20.10.2019 23:00:00 13,6 11,7 11,9 13,0 14,3 13,4 6 3 13 7 E 1011,8 29 0 0,0
20.10.2019 22:00:00 14,3 11,8 12,9 13,4 14,6 13,4 8 5 21 11 E 1011,5 31 0 0,0
20.10.2019 21:00:00 15,3 11,9 13,7 13,9 14,8 13,4 14 8 24 13 ESE 1011,4 36 0 0,0
20.10.2019 20:00:00 15,4 12,5 13,9 14,4 15,1 13,4 13 7 20 11 SE 1011,6 48 0 0,0
20.10.2019 19:00:00 15,6 13,0 13,8 15,5 15,3 13,4 10 5 13 7 ESE 1011,3 47 0 0,0
20.10.2019 18:00:00 18,0 12,8 14,4 16,9 15,4 13,4 6 3 8 5 ENE 1010,8 45 28 0,0
20.10.2019 17:00:00 20,5 12,2 20,7 18,5 15,2 13,4 6 3 11 6 ESE 1010,8 67 53 0,0
20.10.2019 16:00:00 20,9 12,1 22,1 19,6 14,8 13,4 6 3 18 10 SSE 1010,5 68 59 0,0
20.10.2019 15:00:00 21,0 13,4 23,4 19,4 14,2 13,5 9 5 19 11 S 1010,7 53 60 0,0
20.10.2019 14:00:00 20,1 12,6 23,0 18,7 13,6 13,5 13 7 22 12 S 1010,7 63 58 0,0
20.10.2019 13:00:00 19,3 12,0 21,5 17,8 12,9 13,5 14 8 24 13 SSW 1010,8 59 60 0,0
20.10.2019 12:00:00 18,8 11,7 21,1 16,2 12,3 13,5 10 5 16 9 SE 1010,9 45 59 0,0
20.10.2019 11:00:00 16,8 11,1 19,0 14,0 11,9 13,5 13 7 20 11 SE 1010,9 47 60 0,0
20.10.2019 10:00:00 14,9 10,8 14,0 12,0 11,6 13,5 8 5 16 8 ESE 1010,8 31 60 0,0
20.10.2019 09:00:00 13,3 10,4 13,1 11,2 11,5 13,5 6 4 11 6 E 1010,7 36 21 0,0
20.10.2019 08:00:00 11,6 9,9 11,2 10,5 11,5 13,5 9 5 13 7 E 1010,7 35 0 0,0
20.10.2019 07:00:00 10,8 9,5 10,5 10,2 11,6 13,5 7 4 11 6 ESE 1010,4 32 0 0,0
20.10.2019 06:00:00 11,1 9,3 9,3 10,1 11,7 13,5 7 4 11 6 E 1010,1 41 0 0,0
20.10.2019 05:00:00 10,7 9,2 9,6 10,0 11,8 13,5 8 4 13 7 ESE 1010,1 31 0 0,0
20.10.2019 04:00:00 10,7 9,0 8,1 10,2 12,0 13,5 8 5 11 6 ESE 1010,1 33 0 0,0
20.10.2019 03:00:00 11,5 9,7 10,7 10,6 12,1 13,5 6 3 18 10 NE 1010,3 35 0 0,0
20.10.2019 02:00:00 12,9 9,7 11,4 10,8 12,2 13,5 13 7 21 11 SSE 1010,0 47 0 0,0
20.10.2019 01:00:00 12,2 9,8 10,9 10,8 12,3 13,6 10 5 16 9 SSE 1010,4 46 0 0,0
20.10.2019 00:00:00 11,1 9,9 10,3 10,8 12,4 13,6 8 5 14 8 E 1010,2 29 0 0,0
19.10.2019 23:00:00 11,4 10,4 10,9 11,2 12,6 13,6 9 5 16 8 ESE 1010,1 26 0 0,0
19.10.2019 22:00:00 11,6 10,8 10,9 11,2 12,7 13,6 9 5 16 9 ESE 1009,9 25 0 0,0
19.10.2019 21:00:00 11,6 10,8 10,6 11,3 12,9 13,6 11 6 16 9 E 1009,7 30 0 0,0
19.10.2019 20:00:00 11,7 10,8 10,7 11,7 13,1 13,6 11 6 18 10 ESE 1009,9 6 0 0,0
19.10.2019 19:00:00 11,5 10,4 10,1 12,4 13,3 13,6 16 8 19 10 SE 1010,0 45 0 0,0
19.10.2019 18:00:00 13,5 10,8 12,2 13,5 13,4 13,6 12 6 19 10 ESE 1009,9 62 3 0,0
19.10.2019 17:00:00 15,2 11,2 14,6 14,4 13,3 13,6 13 7 20 11 SE 1009,5 15 13 0,0
19.10.2019 16:00:00 15,2 11,6 14,9 14,5 13,1 13,6 11 6 24 13 SSE 1010,1 67 0 0,0
19.10.2019 15:00:00 15,6 11,4 15,2 15,1 12,8 13,6 13 7 25 13 S 1010,5 40 0 0,0
19.10.2019 14:00:00 15,6 11,3 14,7 14,9 12,4 13,6 14 8 32 17 S 1010,9 42 0 0,0
19.10.2019 13:00:00 16,4 11,5 16,7 14,9 11,8 13,7 14 8 21 12 SSE 1010,7 63 14 0,0
19.10.2019 12:00:00 13,7 11,3 13,3 12,5 11,5 13,7 12 7 21 11 SSE 1011,1 47 5 0,0
19.10.2019 11:00:00 11,5 9,7 11,2 11,0 11,3 13,7 12 6 18 10 SE 1011,4 33 0 0,0
19.10.2019 10:00:00 10,7 9,1 10,3 10,2 11,3 13,7 10 5 14 8 SE 1011,6 32 0 0,0
19.10.2019 09:00:00 9,7 8,1 9,1 9,4 11,3 13,7 9 5 12 7 ESE 1011,6 37 0 0,0
19.10.2019 08:00:00 9,1 7,5 8,2 9,1 11,4 13,7 7 4 12 6 ESE 1011,9 44 0 0,0
19.10.2019 07:00:00 8,8 7,0 7,9 9,0 11,6 13,6 8 5 16 9 ESE 1011,9 28 0 0,0
19.10.2019 06:00:00 8,5 6,8 7,6 9,1 11,8 13,6 8 5 12 7 ESE 1012,0 38 0 0,0
19.10.2019 05:00:00 8,6 7,1 7,8 8,9 12,0 13,6 7 4 12 7 ESE 1012,3 44 0 0,0
19.10.2019 04:00:00 7,7 6,6 6,8 8,9 12,3 13,6 9 5 13 7 ESE 1012,0 40 0 0,0
19.10.2019 03:00:00 7,1 6,6 4,4 9,0 12,7 13,6 7 4 9 5 SE 1012,2 30 0 0,0
19.10.2019 02:00:00 7,7 7,5 5,3 9,6 13,2 13,6 4 2 7 4 WSW 1012,1 36 0 0,0
19.10.2019 01:00:00 8,9 8,3 6,1 10,3 13,6 13,6 2 1 12 7 SSW 1011,9 41 0 0,0
19.10.2019 00:00:00 9,4 8,2 7,1 11,2 14,0 13,6 8 5 12 6 SW 1011,8 38 0 0,0
18.10.2019 23:00:00 10,6 9,1 8,5 12,1 14,4 13,6 10 5 28 15 WSW 1011,3 37 0 0,0
18.10.2019 22:00:00 14,2 11,7 12,4 13,2 14,7 13,6 19 10 29 16 W 1010,6 53 0 0,0
18.10.2019 21:00:00 14,1 13,0 12,8 14,1 14,9 13,6 10 6 21 11 WSW 1009,5 40 0 0,0
18.10.2019 20:00:00 15,3 13,4 14,2 14,7 15,1 13,6 11 6 47 26 SSW 1009,1 42 0 2,4
18.10.2019 19:00:00 17,7 12,2 16,5 15,0 15,2 13,6 15 8 24 13 S 1008,6 51 0 0,0
18.10.2019 18:00:00 18,0 12,2 16,9 15,9 15,3 13,6 16 9 29 16 S 1008,5 42 6 0,0
18.10.2019 17:00:00 18,5 12,5 17,9 16,7 15,3 13,6 16 9 32 17 S 1008,3 48 5 0,0
18.10.2019 16:00:00 18,8 13,1 18,5 17,6 15,1 13,6 12 7 33 18 S 1008,7 50 30 0,0
18.10.2019 15:00:00 18,8 12,5 18,9 18,1 14,8 13,6 18 10 27 15 S 1009,1 53 32 0,0
18.10.2019 14:00:00 18,8 12,3 19,4 18,1 14,3 13,6 17 9 27 15 S 1009,4 33 35 0,0
18.10.2019 13:00:00 18,4 12,0 19,2 17,8 13,8 13,7 16 9 28 15 SW 1010,4 62 41 0,0
18.10.2019 12:00:00 17,9 12,0 18,6 17,3 13,1 13,7 19 10 29 16 SSW 1011,1 75 60 0,0
18.10.2019 11:00:00 16,6 12,5 18,0 14,9 12,6 13,7 16 9 29 16 SSW 1011,6 72 33 0,0
18.10.2019 10:00:00 16,0 12,4 15,8 12,8 12,4 13,7 14 8 24 13 SSW 1011,7 55 60 0,0
18.10.2019 09:00:00 14,4 11,3 13,1 11,2 12,4 13,7 9 5 16 9 S 1011,8 42 18 0,0
18.10.2019 08:00:00 13,0 10,9 11,2 10,8 12,6 13,7 6 3 21 11 S 1011,8 18 0 0,0
18.10.2019 07:00:00 12,3 10,3 10,0 11,0 12,8 13,7 7 4 17 9 SSW 1011,8 36 0 0,0
18.10.2019 06:00:00 12,1 11,0 11,1 11,6 12,9 13,7 10 5 15 8 ESE 1011,8 25 0 0,0
18.10.2019 05:00:00 12,2 11,3 11,7 12,0 12,9 13,7 5 3 10 5 E 1012,2 30 0 0,2
18.10.2019 04:00:00 12,1 10,8 11,5 11,9 13,0 13,7 8 5 10 6 ESE 1012,4 23 0 0,0
18.10.2019 03:00:00 12,6 10,8 11,9 11,8 13,0 13,7 3 1 10 5 NE 1012,7 32 0 0,0
18.10.2019 02:00:00 11,8 10,6 11,6 11,6 13,2 13,7 8 4 15 8 ESE 1013,0 31 0 0,0
18.10.2019 01:00:00 11,6 10,4 10,7 11,4 13,5 13,7 9 5 13 7 ESE 1013,2 26 0 0,0
18.10.2019 00:00:00 11,6 10,4 9,5 11,7 13,8 13,7 8 4 14 8 SE 1013,5 27 0 0,0
17.10.2019 23:00:00 12,8 10,8 10,9 12,3 14,1 13,7 8 5 10 5 SE 1013,7 28 0 0,0
17.10.2019 22:00:00 14,2 11,0 11,5 13,5 14,2 13,7 7 4 15 8 SSE 1013,8 38 0 0,0
17.10.2019 21:00:00 15,7 11,3 14,8 14,0 14,4 13,7 9 5 14 8 S 1013,9 44 0 0,0
17.10.2019 20:00:00 15,8 11,3 15,0 14,3 14,5 13,7 11 6 19 10 S 1013,8 46 0 0,0
17.10.2019 19:00:00 16,0 11,5 15,2 14,8 14,6 13,7 9 5 20 11 S 1013,6 58 0 0,0
17.10.2019 18:00:00 16,4 11,5 15,8 15,5 14,6 13,7 9 5 21 12 SSW 1013,6 48 0 0,0
17.10.2019 17:00:00 17,1 10,9 16,9 16,7 14,4 13,7 16 9 31 17 SW 1013,4 59 49 0,0
17.10.2019 16:00:00 17,8 10,6 18,4 17,0 14,0 13,8 21 11 35 19 SW 1013,2 60 46 0,0
17.10.2019 15:00:00 17,6 10,3 18,2 16,4 13,7 13,8 13 7 32 18 SW 1013,1 64 8 0,0
17.10.2019 14:00:00 17,0 10,3 16,9 15,8 13,4 13,8 14 8 31 17 SW 1013,4 56 0 0,0
17.10.2019 13:00:00 16,9 10,0 17,5 15,5 13,0 13,8 23 12 35 19 SW 1013,3 48 1 0,0
17.10.2019 12:00:00 16,1 9,5 16,1 14,6 12,6 13,8 18 10 33 18 SW 1013,6 54 4 0,0
17.10.2019 11:00:00 16,5 9,0 17,6 13,5 12,3 13,8 18 10 32 17 SSW 1013,3 70 7 0,0
17.10.2019 10:00:00 15,1 8,2 15,0 12,3 12,2 13,8 18 10 29 16 S 1013,1 54 5 0,0
17.10.2019 09:00:00 14,4 8,0 13,8 11,4 12,2 13,8 14 8 23 12 S 1012,8 59 8 0,0
17.10.2019 08:00:00 13,7 8,0 12,4 11,1 12,2 13,8 13 7 25 13 S 1012,3 51 0 0,0
17.10.2019 07:00:00 14,2 8,4 13,2 11,4 12,3 13,9 15 8 26 14 SSW 1012,0 64 0 0,0
17.10.2019 06:00:00 14,3 9,2 13,3 11,6 12,2 13,9 11 6 19 10 SSW 1012,1 54 0 0,0
17.10.2019 05:00:00 14,5 9,5 13,6 11,6 12,2 13,9 12 6 24 13 SSW 1012,1 53 0 0,0

tt = temperature
td = dewpoint
tt 5cm = temperature 5cm
tt -5cm = temperature -5cm
tt -20cm = temperature -20cm
tt -100cm = temperature -100cm
ff = wind speed
fx = gusts
dd = wind direction
ppp = reduced air pressure
vv = visibility
sd = sunshine duration
rr = precipitation

Next stations